星链-36446(STARLINK-36446)

导读

STARLINK-36446是由美国于2026年1月12日发射的SpaceX星链卫星,隶属于星链互联网星座项目。星链项目旨在通过构建低轨卫星星座,为全球提供高速宽带互联网服务,该卫星入轨后将与其他星链卫星组网,进一步拓展全球覆盖范围,提升星座服务能力,助力全球网络覆盖目标推进。

Basic Information
目录编号:
67412
目录名称:
STARLINK-36446
国际标识:
2026-005J
轨道中心:
EARTH
卫星名称:
星链-36446
卫星全名:
星链-36446(STARLINK-36446)
卫星状态:
在轨 (已飞行236 天)
发射日期:
2026-01-12 UTC
国别 :
美国 (US)
星等 :
--
Orbit Information
数据来源 国际轨道数据
星历时间: 2026-09-04T12:11:30+0800
1天前
查看轨道信息
半长轴: 6861.169km
偏心率: 0.0001571
轨道倾角: 43.003°
近地点辐角 273.244°
升交点赤经 309.982°
平近点角 86.823°
近地点: 481.954km
远地点: 484.11km
周期: 94.266分钟
每日圈数: 15.275858
Detailed Information
固有亮度:
5
最大亮度:
2.5
卫星平台:
Starlink V1.0
覆盖范围:
全球
运营商:
太空探索技术公司
运营商所在国:
美国
制造商(研发单位):
太空探索技术公司
制造商所在国:
美国
使用方式:
暂无
Satellite Introduction
Starlink 计划是 SpaceX 推出的全球卫星互联网项目,通过发射低轨道卫星,为全球尤其是偏远地区提供高速、低延迟的互联网服务。自 2019 年起,Starlink 已部署数千颗卫星,旨在缩小全球数字鸿沟,推动互联网普及。该项目还为军事、航空等行业提供通信支持,带来广泛经济效益。
2D Orbit Map
3D Orbit Map
Orbit Altitude Analysis Chart
Orbit Inclination Analysis Chart
Orbit Comprehensive Analysis Chart
View Comprehensive Chart
Conjunction Data List
Event ID Objects TCA Miss Dist (km) Collision Risk Probability Collision Risk Index (CRI) Action
CDM_260907-190005-907706-741221
2026-09-07T
19:00:49+0000
0.822 km
远距离
2.838784E-5 中风险 0.64
CDM_260907-035705-737406-741222
2026-09-07T
03:57:39+0000
0.818 km
远距离
1.091126E-5 中风险 0.56
CDM_260907-075305-737406-741221
2026-09-07T
07:53:02+0000
1.035 km
极远距离
4.90921E-6 低风险 0.49
CDM_260907-061805-737406-741221
2026-09-07T
06:18:52+0000
1.118 km
极远距离
3.788541E-6 低风险 0.47
CDM_260906-032506-321606-741223
BOTSAT-1 (63216)
2026-09-06T
03:25:04+0000
1.842 km
极远距离
3.462777E-6 低风险 0.46
CDM_260907-053105-737406-741222
2026-09-07T
05:31:48+0000
1.554 km
极远距离
1.356076E-6 低风险 0.38
CDM_260907-022305-737406-741222
2026-09-07T
02:23:30+0000
2.706 km
极远距离
4.363454E-7 极低风险 0.28